Time,TemperatureF,DewpointF,PressureIn,WindDirection,WindDirectionDegrees,WindSpeedMPH,WindSpeedGustMPH,Humidity,HourlyPrecipIn,Conditions,Clouds,dailyrainin,SolarRadiationWatts/m^2,SoftwareType,DateUTC
2013-02-17 00:02:00,7.0,3.0,-100.00,NNW,330,4.0,15.0,85,0.00,,,0.00,0.000000,,2013-02-17 05:02:00,
2013-02-17 00:33:00,6.0,2.0,-100.00,NNE,27,7.0,15.0,84,0.00,,,0.00,0.000000,,2013-02-17 05:33:00,
2013-02-17 00:42:00,6.0,2.0,-100.00,NNE,27,7.0,15.0,84,0.00,,,0.00,0.000000,,2013-02-17 05:42:00,
2013-02-17 00:52:00,6.0,2.0,-100.00,NNE,27,7.0,15.0,84,0.00,,,0.00,0.000000,,2013-02-17 05:52:00,
2013-02-17 01:02:00,6.0,2.0,-100.00,NNE,27,7.0,15.0,84,0.00,,,0.00,0.000000,,2013-02-17 06:02:00,
2013-02-17 01:21:00,6.0,2.0,-100.00,NNE,19,6.0,16.0,84,0.00,,,0.00,0.000000,,2013-02-17 06:21:00,
2013-02-17 01:32:00,6.0,2.0,-100.00,NNE,19,6.0,16.0,84,0.00,,,0.00,0.000000,,2013-02-17 06:32:00,
2013-02-17 01:42:00,6.0,2.0,-100.00,NNE,19,6.0,16.0,84,0.00,,,0.00,0.000000,,2013-02-17 06:42:00,
2013-02-17 01:52:00,6.0,2.0,-100.00,NNE,19,6.0,16.0,84,0.00,,,0.00,0.000000,,2013-02-17 06:52:00,
2013-02-17 02:01:00,6.0,2.0,-100.00,NNE,19,6.0,16.0,84,0.00,,,0.00,0.000000,,2013-02-17 07:01:00,
2013-02-17 02:32:00,5.0,1.0,-100.00,NW,310,4.0,15.0,84,0.00,,,0.00,0.000000,,2013-02-17 07:32:00,
2013-02-17 02:42:00,5.0,1.0,-100.00,NW,310,4.0,15.0,84,0.00,,,0.00,0.000000,,2013-02-17 07:42:00,
2013-02-17 02:52:00,5.0,1.0,-100.00,NW,310,4.0,15.0,84,0.00,,,0.00,0.000000,,2013-02-17 07:52:00,
2013-02-17 03:01:00,5.0,1.0,-100.00,NW,310,4.0,15.0,84,0.00,,,0.00,0.000000,,2013-02-17 08:01:00,
2013-02-17 03:32:00,5.0,1.0,-100.00,North,6,6.0,15.0,84,0.00,,,0.00,0.000000,,2013-02-17 08:32:00,
2013-02-17 03:42:00,5.0,1.0,-100.00,North,6,6.0,15.0,84,0.00,,,0.00,0.000000,,2013-02-17 08:42:00,
2013-02-17 03:52:00,5.0,1.0,-100.00,North,6,6.0,15.0,84,0.00,,,0.00,0.000000,,2013-02-17 08:52:00,
2013-02-17 04:02:00,5.0,1.0,-100.00,North,6,6.0,15.0,84,0.00,,,0.00,0.000000,,2013-02-17 09:02:00,
2013-02-17 04:21:00,5.0,1.0,-100.00,NNE,14,8.0,23.0,83,0.00,,,-99.99,0.000000,,2013-02-17 09:21:00,
2013-02-17 04:32:00,5.0,1.0,-100.00,NNE,14,8.0,23.0,83,0.00,,,-99.99,0.000000,,2013-02-17 09:32:00,
2013-02-17 04:42:00,5.0,1.0,-100.00,NNE,14,8.0,23.0,83,0.00,,,-99.99,0.000000,,2013-02-17 09:42:00,
2013-02-17 04:52:00,5.0,1.0,-100.00,NNE,14,8.0,23.0,83,0.00,,,-99.99,0.000000,,2013-02-17 09:52:00,
2013-02-17 05:01:00,5.0,1.0,-100.00,NNE,14,8.0,23.0,83,0.00,,,-99.99,0.000000,,2013-02-17 10:01:00,
2013-02-17 05:32:00,4.0,0.0,-100.00,North,10,5.0,17.0,83,0.00,,,0.00,0.000000,,2013-02-17 10:32:00,
2013-02-17 05:42:00,4.0,0.0,-100.00,North,10,5.0,17.0,83,0.00,,,0.00,0.000000,,2013-02-17 10:42:00,
2013-02-17 05:52:00,4.0,0.0,-100.00,North,10,5.0,17.0,83,0.00,,,0.00,0.000000,,2013-02-17 10:52:00,
2013-02-17 06:01:00,4.0,0.0,-100.00,North,10,5.0,17.0,83,0.00,,,0.00,0.000000,,2013-02-17 11:01:00,
2013-02-17 06:03:00,5.0,1.0,-100.00,NNE,19,7.0,18.0,84,0.00,,,0.00,0.000000,,2013-02-17 11:03:00,
2013-02-17 06:32:00,5.0,1.0,-100.00,NNE,19,7.0,18.0,84,0.00,,,0.00,0.000000,,2013-02-17 11:32:00,
2013-02-17 06:42:00,5.0,1.0,-100.00,NNE,19,7.0,18.0,84,0.00,,,0.00,0.000000,,2013-02-17 11:42:00,
2013-02-17 06:53:00,5.0,1.0,-100.00,NNE,19,7.0,18.0,84,0.00,,,0.00,0.000000,,2013-02-17 11:53:00,
2013-02-17 07:32:00,5.0,1.0,-100.00,NNE,25,6.0,16.0,84,0.00,,,0.00,0.000000,,2013-02-17 12:32:00,
2013-02-17 07:42:00,5.0,1.0,-100.00,NNE,25,6.0,16.0,84,0.00,,,0.00,0.000000,,2013-02-17 12:42:00,
2013-02-17 07:52:00,5.0,1.0,-100.00,NNE,25,6.0,16.0,84,0.00,,,0.00,0.000000,,2013-02-17 12:52:00,
2013-02-17 08:02:00,5.0,1.0,-100.00,NNE,25,6.0,16.0,84,0.00,,,0.00,0.000000,,2013-02-17 13:02:00,
2013-02-17 08:32:00,5.0,1.0,-100.00,NNW,338,5.0,16.0,84,0.00,,,-99.99,3.000000,,2013-02-17 13:32:00,
2013-02-17 08:42:00,5.0,1.0,-100.00,NNW,338,5.0,16.0,84,0.00,,,-99.99,3.000000,,2013-02-17 13:42:00,
2013-02-17 08:52:00,5.0,1.0,-100.00,NNW,338,5.0,16.0,84,0.00,,,-99.99,3.000000,,2013-02-17 13:52:00,
2013-02-17 09:01:00,5.0,1.0,-100.00,NNW,338,5.0,16.0,84,0.00,,,-99.99,3.000000,,2013-02-17 14:01:00,
2013-02-17 09:32:00,7.0,3.0,-100.00,NNE,19,7.0,16.0,84,0.00,,,0.00,18.000000,,2013-02-17 14:32:00,
2013-02-17 09:42:00,7.0,3.0,-100.00,NNE,19,7.0,16.0,84,0.00,,,0.00,18.000000,,2013-02-17 14:42:00,
2013-02-17 09:53:00,7.0,3.0,-100.00,NNE,19,7.0,16.0,84,0.00,,,0.00,18.000000,,2013-02-17 14:53:00,
2013-02-17 10:02:00,7.0,3.0,-100.00,NNE,19,7.0,16.0,84,0.00,,,0.00,18.000000,,2013-02-17 15:02:00,
2013-02-17 10:22:00,9.0,5.0,-100.00,NE,34,9.0,15.0,83,0.00,,,0.00,42.000000,,2013-02-17 15:22:00,
2013-02-17 10:32:00,9.0,5.0,-100.00,NE,34,9.0,15.0,83,0.00,,,0.00,42.000000,,2013-02-17 15:32:00,
2013-02-17 10:42:00,9.0,5.0,-100.00,NE,34,9.0,15.0,83,0.00,,,0.00,42.000000,,2013-02-17 15:42:00,
2013-02-17 10:52:00,9.0,5.0,-100.00,NE,34,9.0,15.0,83,0.00,,,0.00,42.000000,,2013-02-17 15:52:00,
2013-02-17 11:01:00,9.0,5.0,-100.00,NE,34,9.0,15.0,83,0.00,,,0.00,42.000000,,2013-02-17 16:01:00,
2013-02-17 11:32:00,11.0,7.0,-100.00,NNE,18,6.0,20.0,83,0.00,,,0.00,81.000000,,2013-02-17 16:32:00,
2013-02-17 11:42:00,11.0,7.0,-100.00,NNE,18,6.0,20.0,83,0.00,,,0.00,81.000000,,2013-02-17 16:42:00,
2013-02-17 11:52:00,11.0,7.0,-100.00,NNE,18,6.0,20.0,83,0.00,,,0.00,81.000000,,2013-02-17 16:52:00,
2013-02-17 12:02:00,11.0,7.0,-100.00,NNE,18,6.0,20.0,83,0.00,,,0.00,81.000000,,2013-02-17 17:02:00,
2013-02-17 12:32:00,17.0,12.0,-100.00,NNW,346,4.0,18.0,82,0.00,,,0.00,163.000000,,2013-02-17 17:32:00,
2013-02-17 12:42:00,17.0,12.0,-100.00,NNW,346,4.0,18.0,82,0.00,,,0.00,163.000000,,2013-02-17 17:42:00,
2013-02-17 12:52:00,17.0,12.0,-100.00,NNW,346,4.0,18.0,82,0.00,,,0.00,163.000000,,2013-02-17 17:52:00,
2013-02-17 13:02:00,17.0,12.0,-100.00,NNW,346,4.0,18.0,82,0.00,,,0.00,163.000000,,2013-02-17 18:02:00,
2013-02-17 13:33:00,20.0,14.0,-100.00,NW,322,4.0,14.0,77,0.00,,,0.00,222.000000,,2013-02-17 18:33:00,
2013-02-17 13:42:00,20.0,14.0,-100.00,NW,322,4.0,14.0,77,0.00,,,0.00,222.000000,,2013-02-17 18:42:00,
2013-02-17 13:52:00,20.0,14.0,-100.00,NW,322,4.0,14.0,77,0.00,,,0.00,222.000000,,2013-02-17 18:52:00,
2013-02-17 14:02:00,20.0,14.0,-100.00,NW,322,4.0,14.0,77,0.00,,,0.00,222.000000,,2013-02-17 19:02:00,
2013-02-17 14:32:00,20.0,13.0,-100.00,NNE,16,6.0,15.0,75,0.00,,,0.00,251.000000,,2013-02-17 19:32:00,
2013-02-17 14:42:00,20.0,13.0,-100.00,NNE,16,6.0,15.0,75,0.00,,,0.00,251.000000,,2013-02-17 19:42:00,
2013-02-17 14:52:00,20.0,13.0,-100.00,NNE,16,6.0,15.0,75,0.00,,,0.00,251.000000,,2013-02-17 19:52:00,
2013-02-17 15:02:00,20.0,13.0,-100.00,NNE,16,6.0,15.0,75,0.00,,,0.00,251.000000,,2013-02-17 20:02:00,
2013-02-17 15:32:00,22.0,15.0,-100.00,North,8,5.0,14.0,74,0.00,,,0.00,257.000000,,2013-02-17 20:32:00,
2013-02-17 15:43:00,22.0,15.0,-100.00,North,8,5.0,14.0,74,0.00,,,0.00,257.000000,,2013-02-17 20:43:00,
2013-02-17 15:52:00,22.0,15.0,-100.00,North,8,5.0,14.0,74,0.00,,,0.00,257.000000,,2013-02-17 20:52:00,
2013-02-17 16:02:00,22.0,15.0,-100.00,North,8,5.0,14.0,74,0.00,,,0.00,257.000000,,2013-02-17 21:02:00,
2013-02-17 16:32:00,22.0,15.0,-100.00,North,5,5.0,15.0,75,0.00,,,0.00,243.000000,,2013-02-17 21:32:00,
2013-02-17 16:42:00,22.0,15.0,-100.00,North,5,5.0,15.0,75,0.00,,,0.00,243.000000,,2013-02-17 21:42:00,
2013-02-17 16:53:00,22.0,15.0,-100.00,North,5,5.0,15.0,75,0.00,,,0.00,243.000000,,2013-02-17 21:53:00,
2013-02-17 17:01:00,22.0,15.0,-100.00,North,5,5.0,15.0,75,0.00,,,0.00,243.000000,,2013-02-17 22:01:00,
2013-02-17 17:32:00,19.0,12.0,-100.00,NNE,20,8.0,17.0,75,0.00,,,0.00,222.000000,,2013-02-17 22:32:00,
2013-02-17 17:42:00,19.0,12.0,-100.00,NNE,20,8.0,17.0,75,0.00,,,0.00,222.000000,,2013-02-17 22:42:00,
2013-02-17 17:52:00,19.0,12.0,-100.00,NNE,20,8.0,17.0,75,0.00,,,0.00,222.000000,,2013-02-17 22:52:00,
2013-02-17 18:02:00,19.0,12.0,-100.00,NNE,20,8.0,17.0,75,0.00,,,0.00,222.000000,,2013-02-17 23:02:00,
2013-02-17 18:32:00,16.0,10.0,-100.00,North,352,5.0,17.0,77,0.00,,,0.00,49.000000,,2013-02-17 23:32:00,
2013-02-17 18:42:00,16.0,10.0,-100.00,North,352,5.0,17.0,77,0.00,,,0.00,49.000000,,2013-02-17 23:42:00,
2013-02-17 18:52:00,16.0,10.0,-100.00,North,352,5.0,17.0,77,0.00,,,0.00,49.000000,,2013-02-17 23:52:00,
2013-02-17 19:02:00,16.0,10.0,-100.00,North,352,5.0,17.0,77,0.00,,,0.00,49.000000,,2013-02-18 00:02:00,
2013-02-17 19:32:00,13.0,7.0,-100.00,NNW,341,6.0,18.0,78,0.00,,,0.00,3.000000,,2013-02-18 00:32:00,
2013-02-17 19:42:00,13.0,7.0,-100.00,NNW,341,6.0,18.0,78,0.00,,,0.00,3.000000,,2013-02-18 00:42:00,
2013-02-17 19:52:00,13.0,7.0,-100.00,NNW,341,6.0,18.0,78,0.00,,,0.00,3.000000,,2013-02-18 00:52:00,
2013-02-17 20:01:00,13.0,7.0,-100.00,NNW,341,6.0,18.0,78,0.00,,,0.00,3.000000,,2013-02-18 01:01:00,
2013-02-17 20:21:00,13.0,7.0,-100.00,North,5,6.0,18.0,78,0.00,,,0.00,0.000000,,2013-02-18 01:21:00,
2013-02-17 20:32:00,13.0,7.0,-100.00,North,5,6.0,18.0,78,0.00,,,0.00,0.000000,,2013-02-18 01:32:00,
2013-02-17 20:42:00,13.0,7.0,-100.00,North,5,6.0,18.0,78,0.00,,,0.00,0.000000,,2013-02-18 01:42:00,
2013-02-17 20:52:00,13.0,7.0,-100.00,North,5,6.0,18.0,78,0.00,,,0.00,0.000000,,2013-02-18 01:52:00,
2013-02-17 21:02:00,13.0,7.0,-100.00,North,5,6.0,18.0,78,0.00,,,0.00,0.000000,,2013-02-18 02:02:00,
2013-02-17 21:22:00,13.0,7.0,-100.00,North,0,7.0,15.0,77,0.00,,,0.00,0.000000,,2013-02-18 02:22:00,
2013-02-17 21:32:00,13.0,7.0,-100.00,North,0,7.0,15.0,77,0.00,,,0.00,0.000000,,2013-02-18 02:32:00,
2013-02-17 21:42:00,13.0,7.0,-100.00,North,0,7.0,15.0,77,0.00,,,0.00,0.000000,,2013-02-18 02:42:00,
2013-02-17 21:52:00,13.0,7.0,-100.00,North,0,7.0,15.0,77,0.00,,,0.00,0.000000,,2013-02-18 02:52:00,
2013-02-17 22:02:00,13.0,7.0,-100.00,North,0,7.0,15.0,77,0.00,,,0.00,0.000000,,2013-02-18 03:02:00,
2013-02-17 22:32:00,13.0,7.0,-100.00,North,6,8.0,17.0,77,0.00,,,0.00,0.000000,,2013-02-18 03:32:00,
2013-02-17 22:42:00,13.0,7.0,-100.00,North,6,8.0,17.0,77,0.00,,,0.00,0.000000,,2013-02-18 03:42:00,
2013-02-17 22:52:00,13.0,7.0,-100.00,North,6,8.0,17.0,77,0.00,,,0.00,0.000000,,2013-02-18 03:52:00,
2013-02-17 23:01:00,13.0,7.0,-100.00,North,6,8.0,17.0,77,0.00,,,0.00,0.000000,,2013-02-18 04:01:00,
2013-02-17 23:22:00,14.0,8.0,-100.00,North,5,8.0,16.0,77,0.00,,,0.00,0.000000,,2013-02-18 04:22:00,
2013-02-17 23:32:00,14.0,8.0,-100.00,North,5,8.0,16.0,77,0.00,,,0.00,0.000000,,2013-02-18 04:32:00,
2013-02-17 23:42:00,14.0,8.0,-100.00,North,5,8.0,16.0,77,0.00,,,0.00,0.000000,,2013-02-18 04:42:00,
2013-02-17 23:52:00,14.0,8.0,-100.00,North,5,8.0,16.0,77,0.00,,,0.00,0.000000,,2013-02-18 04:52:00,